Sturgis, MI

11:54 AM EST on December 06, 2019 (GMT -0500)
Kirsch Municipal

Weather History for KIRS - October, 2019

Change the Weather History Date:

Sunday, October 27, 2019

  Actual Average (KHAI) Record (KHAI)
Temperature  
Mean Temperature 54 °F -  
Max Temperature 62 °F 59 °F 78 °F (1963)
Min Temperature 45 °F 37 °F 16 °F (1976)
Degree Days  
Heating Degree Days 12    
Growing Degree Days 4 (Base 50)    
Moisture  
Dew Point 43 °F    
Average Humidity 71    
Maximum Humidity 89    
Minimum Humidity 30    
Precipitation  
Precipitation 0.02 in - - ()
Sea Level Pressure  
Sea Level Pressure 29.76 in    
Wind  
Wind Speed 12 mph ()    
Max Wind Speed 30 mph    
Max Gust Speed 40 mph    
Visibility 8.5 miles    
Events Rain    
Averages and records for this station are not official NWS values.
T = Trace of Precipitation, MM = Missing Value Source: Averaged Metar Reports

Daily Weather History Graph

Daily Weather History Graph

Search for Another Location

Airport or City:

Astronomy

Oct. 27, 2019 Rise Set
Actual Time 8:07 AM EDT 6:42 PM EDT
Civil Twilight 7:39 AM EDT 7:11 PM EDT
Nautical Twilight 7:06 AM EDT 7:44 PM EDT
Astronomical Twilight 6:34 AM EDT 8:16 PM EDT
Moon 7:13 AM EDT (10/27) 6:53 PM EDT (10/27)
Length of Visible Light 11h 32m
Length of Day
10h 35m
Waning Crescent, 0% of the Moon is Illuminated
Oct 27
Waning Crescent
Oct 27
New
Nov 4
First Quarter
Nov 12
Full
Nov 19
Last Quarter

Hourly Weather History & Observations

Time (EDT) Temp. Dew Point Humidity Pressure Visibility Wind Dir Wind Speed Gust Speed Precip Events Conditions
12:15 AM 61.7 °F 57.2 °F 85% 29.43 in 10.0 mi SE 12.7 mph - N/A   Overcast
12:35 AM 61.7 °F 57.6 °F 86% 29.41 in 7.0 mi SE 13.8 mph 17.3 mph 0.01 in Rain Light Rain
12:59 AM 62.2 °F 57.7 °F 85% 29.38 in 10.0 mi SE 12.7 mph 18.4 mph 0.01 in   Overcast
1:17 AM 62.6 °F 57.6 °F 84% 29.36 in 10.0 mi SSE 12.7 mph 19.6 mph N/A Rain Rain
1:35 AM 62.2 °F 58.1 °F 86% 29.36 in 7.0 mi South 15.0 mph 19.6 mph 0.01 in Rain Light Rain
1:55 AM 58.6 °F 53.2 °F 82% 29.37 in 10.0 mi SSW 23.0 mph 40.3 mph 0.01 in   Light Drizzle
2:15 AM 55.9 °F 50.5 °F 82% 29.39 in 10.0 mi SSW 29.9 mph 39.1 mph N/A   Light Drizzle
2:20 AM 55.2 °F 49.5 °F 81% 29.39 in 10.0 mi SSW 25.3 mph 35.7 mph N/A   Overcast
2:38 AM 53.6 °F 47.5 °F 80% 29.40 in 10.0 mi SSW 23.0 mph 34.5 mph N/A   Overcast
2:56 AM 52.7 °F 47.3 °F 82% 29.40 in 10.0 mi SSW 23.0 mph 31.1 mph N/A   Overcast
3:15 AM 51.8 °F 47.5 °F 85% 29.40 in 7.0 mi SSW 15.0 mph 25.3 mph N/A   Overcast
3:35 AM 50.5 °F 46.6 °F 86% 29.39 in 5.0 mi SSW 15.0 mph 25.3 mph N/A   Drizzle
3:59 AM 49.6 °F 46.4 °F 89% 29.39 in 7.0 mi South 16.1 mph 23.0 mph N/A   Drizzle
4:17 AM 49.3 °F 46.0 °F 89% 29.39 in 3.0 mi SSW 12.7 mph - N/A   Drizzle
4:35 AM 49.3 °F 46.0 °F 89% 29.40 in 4.0 mi SW 13.8 mph - N/A   Light Drizzle
4:36 AM 49.3 °F 46.0 °F 89% 29.40 in 4.0 mi SW 15.0 mph - N/A   Light Drizzle
4:55 AM 50.0 °F 46.6 °F 88% 29.42 in 10.0 mi WSW 13.8 mph 20.7 mph N/A   Overcast
5:19 AM 50.2 °F 46.9 °F 89% 29.44 in 2.5 mi WSW 15.0 mph - N/A Rain Rain
5:37 AM 50.2 °F 47.1 °F 89% 29.46 in 5.0 mi West 13.8 mph 18.4 mph N/A Rain Light Rain
5:55 AM 50.2 °F 46.9 °F 89% 29.47 in 4.0 mi West 13.8 mph 21.9 mph N/A Rain Light Rain
6:15 AM 50.7 °F 47.3 °F 88% 29.51 in 2.5 mi West 13.8 mph 20.7 mph N/A   Drizzle
6:35 AM 50.9 °F 47.5 °F 88% 29.54 in 3.0 mi West 16.1 mph 32.2 mph N/A Rain Light Rain
6:40 AM 50.5 °F 47.3 °F 89% 29.55 in 4.0 mi West 16.1 mph 32.2 mph N/A Rain Light Rain
6:58 AM 49.8 °F 46.4 °F 88% 29.58 in 3.0 mi West 16.1 mph 27.6 mph N/A   Overcast
7:16 AM 49.1 °F 45.7 °F 88% 29.61 in 3.0 mi West 17.3 mph 27.6 mph N/A   Overcast
7:35 AM 48.4 °F 45.1 °F 89% 29.63 in 3.0 mi West 17.3 mph 32.2 mph N/A Rain Light Rain
7:55 AM 48.2 °F 44.8 °F 88% 29.65 in 3.0 mi West 17.3 mph 27.6 mph N/A Rain Light Rain
8:19 AM 48.2 °F 44.8 °F 88% 29.68 in 5.0 mi West 16.1 mph 31.1 mph N/A   Overcast
8:37 AM 48.2 °F 44.8 °F 88% 29.70 in 7.0 mi West 18.4 mph 25.3 mph N/A   Overcast
8:55 AM 48.2 °F 44.8 °F 88% 29.73 in 5.0 mi West 13.8 mph 23.0 mph N/A   Overcast
8:56 AM 48.2 °F 44.8 °F 88% 29.73 in 5.0 mi West 15.0 mph 23.0 mph N/A   Overcast
9:15 AM 48.2 °F 44.8 °F 88% 29.75 in 7.0 mi West 12.7 mph 26.5 mph N/A   Overcast
9:35 AM 48.2 °F 45.0 °F 89% 29.77 in 10.0 mi WNW 16.1 mph 20.7 mph N/A   Overcast
9:58 AM 48.7 °F 45.5 °F 89% 29.79 in 10.0 mi WNW 12.7 mph 18.4 mph N/A   Overcast
10:16 AM 49.3 °F 45.7 °F 87% 29.80 in 10.0 mi West 13.8 mph 23.0 mph N/A   Overcast
10:35 AM 49.6 °F 45.9 °F 87% 29.82 in 10.0 mi West 13.8 mph 19.6 mph N/A   Overcast
10:55 AM 50.0 °F 46.0 °F 86% 29.83 in 10.0 mi WNW 9.2 mph 16.1 mph N/A   Overcast
11:19 AM 50.5 °F 46.4 °F 86% 29.84 in 10.0 mi West 9.2 mph - N/A   Overcast
11:37 AM 51.3 °F 46.6 °F 84% 29.85 in 10.0 mi West 9.2 mph - N/A   Overcast
11:55 AM 52.7 °F 46.4 °F 79% 29.86 in 10.0 mi West 9.2 mph - N/A   Overcast
11:56 AM 52.7 °F 46.2 °F 79% 29.86 in 10.0 mi West 8.1 mph - N/A   Overcast
12:15 PM 53.4 °F 45.5 °F 75% 29.87 in 10.0 mi WNW 8.1 mph 16.1 mph N/A   Overcast
12:35 PM 55.0 °F 46.2 °F 72% 29.88 in 10.0 mi WNW 9.2 mph - N/A   Overcast
12:58 PM 55.9 °F 45.5 °F 68% 29.89 in 10.0 mi West 11.5 mph 17.3 mph N/A   Overcast
1:15 PM 55.6 °F 44.8 °F 67% 29.89 in 10.0 mi West 11.5 mph 16.1 mph N/A   Mostly Cloudy
1:35 PM 57.4 °F 44.1 °F 61% 29.89 in 10.0 mi West 13.8 mph 19.6 mph N/A   Scattered Clouds
1:36 PM 57.4 °F 43.9 °F 61% 29.89 in 10.0 mi West 15.0 mph 19.6 mph N/A   Scattered Clouds
1:55 PM 57.7 °F 42.3 °F 56% 29.89 in 10.0 mi WNW 11.5 mph 17.3 mph N/A   Scattered Clouds
2:19 PM 58.3 °F 39.9 °F 50% 29.89 in 10.0 mi West 12.7 mph 17.3 mph N/A   Clear
2:37 PM 58.5 °F 38.8 °F 48% 29.89 in 10.0 mi West 12.7 mph - N/A   Clear
2:55 PM 59.0 °F 38.7 °F 47% 29.90 in 10.0 mi WNW 9.2 mph - N/A   Clear
3:15 PM 59.4 °F 35.8 °F 41% 29.90 in 10.0 mi West 9.2 mph - N/A   Clear
3:35 PM 59.4 °F 34.2 °F 39% 29.91 in 10.0 mi West 8.1 mph - N/A   Clear
3:58 PM 59.4 °F 33.8 °F 38% 29.92 in 10.0 mi West 11.5 mph 17.3 mph N/A   Clear
4:16 PM 59.9 °F 27.9 °F 30% 29.93 in 10.0 mi West 10.4 mph - N/A   Clear
4:35 PM 60.1 °F 29.1 °F 31% 29.94 in 10.0 mi WSW 8.1 mph - N/A   Clear
4:36 PM 60.1 °F 29.7 °F 32% 29.94 in 10.0 mi WSW 9.2 mph - N/A   Clear
4:55 PM 60.1 °F 31.5 °F 34% 29.94 in 10.0 mi West 6.9 mph - N/A   Clear
5:19 PM 59.9 °F 31.3 °F 34% 29.95 in 10.0 mi West 8.1 mph - N/A   Clear
5:37 PM 59.4 °F 31.1 °F 34% 29.96 in 10.0 mi West 6.9 mph - N/A   Clear
5:55 PM 58.3 °F 32.5 °F 38% 29.96 in 10.0 mi West 4.6 mph - N/A   Clear
6:15 PM 55.4 °F 40.6 °F 58% 29.96 in 10.0 mi WSW 5.8 mph - N/A   Clear
6:35 PM 53.4 °F 38.7 °F 57% 29.96 in 10.0 mi WSW 6.9 mph - N/A   Clear
6:40 PM 52.9 °F 37.9 °F 57% 29.96 in 10.0 mi WSW 6.9 mph - N/A   Clear
6:58 PM 51.6 °F 37.0 °F 58% 29.97 in 10.0 mi SW 5.8 mph - N/A   Clear
7:15 PM 51.1 °F 36.5 °F 57% 29.97 in 10.0 mi WSW 5.8 mph - N/A   Clear
7:16 PM 50.9 °F 36.5 °F 58% 29.97 in 10.0 mi SW 5.8 mph - N/A   Clear
7:35 PM 50.0 °F 35.8 °F 58% 29.98 in 10.0 mi SSW 4.6 mph - N/A   Clear
7:36 PM 50.2 °F 35.6 °F 57% 29.98 in 10.0 mi SSW 4.6 mph - N/A   Clear
7:55 PM 50.0 °F 35.6 °F 58% 29.98 in 10.0 mi SSW 3.5 mph - N/A   Clear
8:18 PM 49.6 °F 36.0 °F 59% 29.99 in 10.0 mi SSW 4.6 mph - N/A   Clear
8:36 PM 48.9 °F 36.5 °F 62% 29.99 in 10.0 mi SSW 5.8 mph - N/A   Clear
8:56 PM 49.1 °F 36.7 °F 62% 30.00 in 10.0 mi SW 4.6 mph - N/A   Clear
9:15 PM 48.4 °F 37.4 °F 66% 29.99 in 10.0 mi SSW 3.5 mph - N/A   Clear
9:39 PM 48.0 °F 37.8 °F 68% 29.99 in 10.0 mi SSW 4.6 mph - N/A   Clear
9:57 PM 48.0 °F 37.9 °F 68% 30.00 in 10.0 mi SW 3.5 mph - N/A   Clear
10:15 PM 47.5 °F 38.1 °F 70% 30.00 in 10.0 mi Calm Calm - N/A   Clear
10:16 PM 47.7 °F 38.3 °F 70% 30.00 in 10.0 mi Calm Calm - N/A   Clear
10:35 PM 48.2 °F 38.5 °F 69% 30.01 in 10.0 mi South 3.5 mph - N/A   Clear
10:55 PM 47.7 °F 38.5 °F 70% 30.01 in 10.0 mi South 4.6 mph - N/A   Clear
11:18 PM 46.9 °F 38.5 °F 72% 30.01 in 10.0 mi South 3.5 mph - N/A   Clear
11:36 PM 47.3 °F 38.8 °F 72% 30.00 in 10.0 mi South 3.5 mph - N/A   Clear
11:55 PM 45.3 °F 37.8 °F 75% 30.01 in 10.0 mi Calm Calm - N/A   Clear
11:56 PM 45.0 °F 37.6 °F 75% 30.00 in 10.0 mi Calm Calm - N/A   Clear